When you browse on this site, cookies collect data to enhance your experience and personalize the content and advertising you see.
Visit our Privacy Policy to learn more. By continuing to use the site, you agree to this use of cookies and data.
  • In France
  • List of Countries
  • For 7 days
  • Water Temperature
  • Satellite Maps
  • Weather Map
  • Weather Widgets
  • user-avatar
    Login

    Hourly Weather Zaranj

    Today, 19 April, Friday

    Time Temperature Precipitation Wind Pressure Humidity
    00:00 +29°C° 0 mm 3 mps 717 mmHg 17%
    01:00 +29°C° 0 mm 3 mps 717 mmHg 18%
    02:00 +28°C° 0 mm 3 mps 716 mmHg 19%
    03:00 +28°C° 0 mm 3 mps 716 mmHg 20%
    04:00 +27°C° 0 mm 3 mps 716 mmHg 21%
    05:00 +27°C° 0 mm 3 mps 716 mmHg 21%
    06:00 +27°C° 0 mm 2 mps 716 mmHg 21%
    07:00 +28°C° 0 mm 2 mps 717 mmHg 20%
    08:00 +30°C° 0 mm 2 mps 717 mmHg 18%
    09:00 +31°C° 0 mm 2 mps 717 mmHg 16%
    10:00 +34°C° 0 mm 2 mps 717 mmHg 14%
    11:00 +35°C° 0 mm 2 mps 717 mmHg 14%
    12:00 +35°C° 0 mm 1 mps 716 mmHg 14%
    13:00 +36°C° 0 mm 1 mps 716 mmHg 14%
    14:00 +36°C° 0 mm 1 mps 716 mmHg 13%
    15:00 +37°C° 0 mm 1 mps 715 mmHg 13%
    16:00 +37°C° 0 mm 1 mps 715 mmHg 12%
    17:00 +37°C° 0 mm 1 mps 714 mmHg 13%
    18:00 +37°C° 0 mm 2 mps 714 mmHg 14%
    19:00 +36°C° 0 mm 2 mps 714 mmHg 15%
    20:00 +36°C° 0 mm 2 mps 714 mmHg 16%
    21:00 +35°C° 0 mm 2 mps 714 mmHg 16%
    22:00 +34°C° 0 mm 3 mps 715 mmHg 17%
    23:00 +34°C° 0 mm 3 mps 714 mmHg 18%

    Tomorrow, 20 April, Saturday

    Time Temperature Precipitation Wind Pressure Humidity
    00:00 +33°C° 0 mm 3 mps 714 mmHg 18%
    01:00 +31°C° 0 mm 3 mps 714 mmHg 19%
    02:00 +31°C° 0 mm 2 mps 713 mmHg 21%
    03:00 +30°C° 0 mm 2 mps 713 mmHg 22%
    04:00 +29°C° 0 mm 1 mps 713 mmHg 24%
    05:00 +30°C° 0 mm 1 mps 713 mmHg 23%
    06:00 +30°C° 0 mm 1 mps 714 mmHg 23%
    07:00 +31°C° 0 mm 1 mps 714 mmHg 22%
    08:00 +32°C° 0.1 mm 1 mps 714 mmHg 20%
    09:00 +34°C° 0.1 mm 1 mps 714 mmHg 18%
    10:00 +35°C° 0.1 mm 1 mps 715 mmHg 17%
    11:00 +36°C° 0 mm 1 mps 714 mmHg 15%
    12:00 +37°C° 0 mm 1 mps 714 mmHg 13%
    13:00 +39°C° 0 mm 2 mps 714 mmHg 12%
    14:00 +39°C° 0 mm 2 mps 713 mmHg 11%
    15:00 +40°C° 0 mm 1 mps 713 mmHg 11%
    16:00 +40°C° 0 mm 1 mps 712 mmHg 10%
    17:00 +39°C° 0 mm 1 mps 712 mmHg 11%
    18:00 +37°C° 0 mm 1 mps 712 mmHg 12%
    19:00 +37°C° 0 mm 2 mps 712 mmHg 13%
    20:00 +37°C° 0 mm 2 mps 712 mmHg 14%
    21:00 +36°C° 0 mm 2 mps 713 mmHg 15%
    22:00 +35°C° 0 mm 3 mps 713 mmHg 15%
    23:00 +35°C° 0 mm 3 mps 713 mmHg 16%

    Day after tomorrow, 21 April, Sunday

    Time Temperature Precipitation Wind Pressure Humidity
    00:00 +34°C° 0 mm 3 mps 713 mmHg 16%
    01:00 +34°C° 0 mm 4 mps 712 mmHg 17%
    02:00 +33°C° 0 mm 3 mps 712 mmHg 18%
    03:00 +31°C° 0 mm 3 mps 712 mmHg 19%
    04:00 +31°C° 0 mm 3 mps 712 mmHg 19%
    05:00 +31°C° 0 mm 3 mps 713 mmHg 18%
    06:00 +31°C° 0 mm 3 mps 713 mmHg 17%
    07:00 +31°C° 0 mm 3 mps 714 mmHg 16%
    08:00 +32°C° 0 mm 5 mps 714 mmHg 22%
    09:00 +32°C° 0 mm 7 mps 714 mmHg 28%
    10:00 +31°C° 0 mm 9 mps 715 mmHg 34%
    11:00 +33°C° 0 mm 9 mps 715 mmHg 30%
    12:00 +34°C° 0 mm 9 mps 714 mmHg 26%
    13:00 +35°C° 0 mm 9 mps 714 mmHg 22%
    14:00 +35°C° 0 mm 8 mps 714 mmHg 21%
    15:00 +35°C° 0 mm 8 mps 714 mmHg 20%
    16:00 +35°C° 0 mm 7 mps 713 mmHg 19%
    17:00 +34°C° 0 mm 7 mps 713 mmHg 22%
    18:00 +33°C° 0 mm 7 mps 713 mmHg 24%
    19:00 +32°C° 0 mm 7 mps 713 mmHg 26%
    20:00 +30°C° 0 mm 7 mps 714 mmHg 29%
    21:00 +29°C° 0 mm 7 mps 714 mmHg 31%
    22:00 +28°C° 0 mm 7 mps 715 mmHg 34%
    23:00 +27°C° 0 mm 8 mps 714 mmHg 37%

    22 April, Monday

    Time Temperature Precipitation Wind Pressure Humidity
    00:00 +26°C° 0 mm 8 mps 714 mmHg 39%
    01:00 +24°C° 0 mm 8 mps 714 mmHg 42%
    02:00 +24°C° 0 mm 8 mps 714 mmHg 42%
    03:00 +23°C° 0 mm 8 mps 714 mmHg 43%
    04:00 +22°C° 0 mm 8 mps 714 mmHg 44%
    05:00 +22°C° 0 mm 7 mps 714 mmHg 44%
    06:00 +22°C° 0 mm 7 mps 715 mmHg 43%
    07:00 +22°C° 0 mm 6 mps 715 mmHg 43%
    08:00 +24°C° 0 mm 6 mps 715 mmHg 38%
    09:00 +27°C° 0 mm 5 mps 716 mmHg 34%
    10:00 +29°C° 0 mm 5 mps 716 mmHg 29%
    11:00 +30°C° 0 mm 4 mps 715 mmHg 26%
    12:00 +31°C° 0 mm 2 mps 715 mmHg 23%
    13:00 +33°C° 0 mm 1 mps 715 mmHg 20%
    14:00 +33°C° 0 mm 1 mps 714 mmHg 19%
    15:00 +34°C° 0 mm 1 mps 714 mmHg 19%
    16:00 +35°C° 0 mm 1 mps 713 mmHg 18%
    17:00 +35°C° 0 mm 2 mps 714 mmHg 18%
    18:00 +35°C° 0 mm 2 mps 714 mmHg 19%
    19:00 +35°C° 0 mm 2 mps 714 mmHg 20%
    20:00 +34°C° 0 mm 2 mps 714 mmHg 22%
    21:00 +32°C° 0 mm 2 mps 714 mmHg 23%
    22:00 +33°C° 0 mm 3 mps 715 mmHg 24%
    23:00 +31°C° 0.1 mm 3 mps 715 mmHg 29%

    23 April, Tuesday

    Time Temperature Precipitation Wind Pressure Humidity
    00:00 +30°C° 0.1 mm 4 mps 714 mmHg 33%
    01:00 +29°C° 0.1 mm 5 mps 714 mmHg 37%
    02:00 +28°C° 0 mm 5 mps 714 mmHg 39%
    03:00 +27°C° 0 mm 5 mps 714 mmHg 41%
    04:00 +27°C° 0 mm 5 mps 714 mmHg 43%
    05:00 +27°C° 0 mm 5 mps 714 mmHg 44%
    06:00 +27°C° 0 mm 4 mps 714 mmHg 44%
    07:00 +26°C° 0 mm 4 mps 715 mmHg 44%
    08:00 +28°C° 0 mm 3 mps 715 mmHg 40%
    09:00 +29°C° 0 mm 2 mps 715 mmHg 36%
    10:00 +31°C° 0 mm 2 mps 715 mmHg 32%
    11:00 +32°C° 0 mm 1 mps 715 mmHg 29%
    12:00 +33°C° 0 mm 1 mps 714 mmHg 26%
    13:00 +35°C° 0 mm 1 mps 714 mmHg 23%
    14:00 +37°C° 0 mm 2 mps 713 mmHg 21%
    15:00 +38°C° 0 mm 3 mps 713 mmHg 19%
    16:00 +40°C° 0 mm 4 mps 712 mmHg 17%
    17:00 +35°C° 0.8 mm 5 mps 712 mmHg 27%
    18:00 +32°C° 0.8 mm 6 mps 712 mmHg 36%
    19:00 +28°C° 0.8 mm 8 mps 713 mmHg 45%
    20:00 +28°C° 0.1 mm 7 mps 713 mmHg 44%
    21:00 +29°C° 0.1 mm 6 mps 713 mmHg 43%
    22:00 +29°C° 0.1 mm 5 mps 713 mmHg 42%
    23:00 +28°C° 0 mm 5 mps 713 mmHg 42%

    24 April, Wednesday

    Time Temperature Precipitation Wind Pressure Humidity
    00:00 +28°C° 0 mm 5 mps 712 mmHg 43%
    01:00 +28°C° 0 mm 5 mps 711 mmHg 43%
    02:00 +28°C° 0 mm 5 mps 711 mmHg 44%
    03:00 +27°C° 0 mm 4 mps 711 mmHg 46%
    04:00 +27°C° 0 mm 4 mps 711 mmHg 47%
    05:00 +27°C° 0 mm 3 mps 712 mmHg 46%
    06:00 +28°C° 0 mm 3 mps 712 mmHg 45%
    07:00 +28°C° 0 mm 2 mps 713 mmHg 44%
    08:00 +28°C° 0 mm 5 mps 713 mmHg 43%
    09:00 +28°C° 0 mm 8 mps 714 mmHg 41%
    10:00 +28°C° 0 mm 11 mps 715 mmHg 40%
    11:00 +28°C° 0 mm 11 mps 715 mmHg 35%
    12:00 +28°C° 0 mm 11 mps 715 mmHg 30%
    13:00 +29°C° 0 mm 11 mps 715 mmHg 25%
    14:00 +28°C° 0 mm 11 mps 715 mmHg 26%
    15:00 +28°C° 0 mm 11 mps 715 mmHg 27%
    16:00 +27°C° 0 mm 11 mps 715 mmHg 28%
    17:00 +26°C° 0 mm 11 mps 716 mmHg 28%
    18:00 +24°C° 0 mm 11 mps 716 mmHg 28%
    19:00 +24°C° 0 mm 11 mps 717 mmHg 29%
    20:00 +23°C° 0 mm 12 mps 718 mmHg 30%
    21:00 +22°C° 0 mm 12 mps 718 mmHg 31%
    22:00 +21°C° 0 mm 12 mps 719 mmHg 33%
    23:00 +19°C° 0 mm 12 mps 719 mmHg 35%
    Show more